Regional Weather Roundup
Issued by NWS

Home | Current Version | Previous Version | Graphics & Text | Print | Product List | Glossary On
Versions: 1 2 3 4 5 6 7 8 9 10 11 12 13 14 15 16 17 18 19 20 21 22 23 24 25 26 27 28 29 30 31 32 33 34 35 36 37 38 39 40 41 42 43 44 45 46 47 48 49 50
000
ASUS43 KMKX 281334
RWRWI

WISCONSIN REGIONAL WEATHER ROUNDUP
NATIONAL WEATHER SERVICE MILWAUKEE/SULLIVAN WI
900 AM CDT THU MAY 28 2015

NOTE: "FAIR" INDICATES FEW OR NO CLOUDS BELOW 12,000 FEET WITH NO
SIGNIFICANT WEATHER AND/OR OBSTRUCTIONS TO VISIBILITY.

WIZ001-002-006>008-014>016-023>028-281500-
NORTHWEST WISCONSIN

CITY           SKY/WX    TMP DP  RH WIND       PRES   REMARKS
SUPERIOR ARPT  CLOUDY    43  40  87 NE14G20   30.14F
ASHLAND        PTSUNNY   49  46  90 N6        30.13S
HAYWARD        SUNNY     60  56  86 N5        30.09S
SIREN          MOSUNNY   60  57  89 CALM      30.07S
CUMBERLAND     SUNNY     61  55  82 S3        30.09S
RICE LAKE      SUNNY     63  56  78 SE6       30.11R
CHETEK         SUNNY     62  57  84 SE5       30.10S
LADYSMITH      SUNNY     61  58  91 SE3       30.12S
EAU CLAIRE     SUNNY     64  59  83 CALM      30.10R
MENOMONIE      SUNNY     63  60  91 CALM      30.10S
NEW RICHMOND   SUNNY     67  56  67 S8        30.08R
OSCEOLA        SUNNY     67  60  79 S7        30.09S
$$

WIZ003>005-009-010-017-018-281500-
NORTH CENTRAL WISCONSIN

CITY           SKY/WX    TMP DP  RH WIND       PRES   REMARKS
MANITOWISH WTR SUNNY     59  58  97 CALM      30.13S
ARBOR VITAE    SUNNY     62  58  88 S3        30.13S
WOODRUFF       SUNNY     62  58  88 S3        30.13S
RHINELANDER    SUNNY     60  56  86 CALM      30.15S
EAGLE RIVER    SUNNY     60  56  88 CALM      30.14F
LAND O LAKES   SUNNY     61  56  83 CALM      30.15F
PHILLIPS       SUNNY     62  59  88 CALM      30.11F
TOMAHAWK       SUNNY     59  57  94 CALM      30.14F
MEDFORD        SUNNY     61  58  91 S5        30.13S
MERRILL        SUNNY     59  57  94 CALM      30.14F
$$

WIZ029-030-035-036-043>047-281500-
CENTRAL WISCONSIN

CITY           SKY/WX    TMP DP  RH WIND       PRES   REMARKS
WAUSAU         SUNNY     62  58  86 E5        30.12F
MOSINEE        SUNNY     61  61 100 CALM      30.14F
MARSHFIELD     SUNNY     63  58  83 SW5       30.14R
STEVENS POINT  SUNNY     61  58  91 CALM      30.14F
WAUPACA        SUNNY     63  61  95 CALM      30.15R
WAUTOMA        SUNNY     65  62  90 CALM      30.16R
WISC RAPIDS    SUNNY     64  59  83 SW6       30.15R
CAMP DOUGLAS   SUNNY     70  66  88 VRB3      30.13S
$$

WIZ011>013-019>022-031-037>040-048>050-281500-
NORTHEAST WISCONSIN

CITY           SKY/WX    TMP DP  RH WIND       PRES   REMARKS
ANTIGO         SUNNY     61  58  88 CALM      30.15F
SHAWANO        SUNNY     62  61  96 CALM      30.15F
OCONTO         SUNNY     62  60  94 CALM      30.15S
STURGEON BAY   SUNNY     63  57  82 CALM      30.18F
GREEN BAY      SUNNY     66  59  78 CALM      30.15S
MANITOWOC      SUNNY     61  57  87 CALM      30.16F
APPLETON       SUNNY     66  61  82 S5        30.15F
CLINTONVILLE   SUNNY     61  61 100 CALM      30.14F
OSHKOSH        SUNNY     68  60  75 S6        30.14F
$$

WIZ032>034-041-042-053>061-281500-
SOUTHWEST WISCONSIN

CITY           SKY/WX    TMP DP  RH WIND       PRES   REMARKS
LA CROSSE      SUNNY     68  59  73 S6        30.13R
SPARTA         SUNNY     64  58  81 CALM      30.15R
VIROQUA        SUNNY     66  58  75 SW6       30.17R
BOSCOBEL       PTSUNNY   62  61  96 CALM      30.17R FOG
PRAIRIE DU CHI SUNNY     64  59  85 CALM      30.16R
PLATTEVILLE    SUNNY     66  61  83 SE5       30.18R
$$

WIZ056-057-062-063-064-067-068-281500-
SOUTH CENTRAL WISCONSIN

CITY           SKY/WX    TMP DP  RH WIND       PRES   REMARKS
REEDSBURG      SUNNY     67  59  76 S6        30.15S
BARABOO/DELLS  SUNNY     67  57  70 SW5       30.15S
LONE ROCK      SUNNY     66  59  78 SE3       30.17R
MINERAL POINT  SUNNY     68  59  73 SW5       30.18S
MADISON        MOSUNNY   69  57  65 S3        30.17R
MIDDLETON      SUNNY     70  56  62 SW6       30.18R
WATERTOWN      SUNNY    N/A N/A N/A SW6       30.18R
MONROE         SUNNY     68  57  68 SW8       30.19R
JANESVILLE     SUNNY     66  59  77 CALM      30.18
$$

WIZ051-052-058>065-066-070>072-281500-
SOUTHEAST WISCONSIN

CITY           SKY/WX    TMP DP  RH WIND       PRES   REMARKS
MILWAUKEE      SUNNY     71  57  61 SW3       30.17S
WAUKESHA       SUNNY     66  57  72 SW3       30.19S
MILWAUKEE/TIMM SUNNY     70  55  60 W5        30.18S
RACINE         SUNNY     67  57  70 SW7       30.20R
BURLINGTON     SUNNY     64  59  84 SW3       30.19R
KENOSHA        SUNNY     66  59  78 SW6       30.20R
FOND DU LAC    SUNNY     68  59  73 SW9       30.16S
SHEBOYGAN      SUNNY     70  61  73 SW6       30.15S
WEST BEND      SUNNY     72  55  56 SW3       30.17S
JUNEAU         SUNNY     65  59  80 S9        30.19R
$$

LSZ147-162-281500-
LAKE SUPERIOR

STATION/POSITION TIME  TEMP    WIND        PRES    WAVE
                       AIR SEA DIR/SP/G            HT/PER
                 (UTC) (F)     (DEG/KT/KT) (MB)    (FT/S)
W MID LAKE BUOY  1250   38 37   50/ 14/ 16   N/A     3/ 4
DEVILS ISLAND    1300   40      60/ 15/ 17   N/A
PORT WING        1200   42      30/ 13/ 15   N/A
$$

LMZ867-665-643>646-281500-
LAKE MICHIGAN

STATION/POSITION TIME  TEMP    WIND        PRES    WAVE
                       AIR SEA DIR/SP/G            HT/PER
                 (UTC) (F)     (DEG/KT/KT) (MB)    (FT/S)
CHAMBERS ISLAND  1200   61     260/  2/  5   N/A
N MID LAKE BUOY  1250   40 36  210/  6/  8   N/A     1/ 4
NORTHPORT PIER   1200   53     140/  2/  3   N/A
SISTER BAY       1233   62        CALM       N/A
ALGOMA LAKESHORE 1208             CALM       N/A
KEWAUNEE LAKESHO 1300   51      90/  3/  5   N/A
SHEBOYGAN LAKESH 1300   55     180/  5/  6   N/A
PORT WASHINGTON  1300   57     170/  1/ 12   N/A
ATWATER BUOY     1200   56 47  130/  4/  4   N/A
MILWAUKEE LAKESH 1300   60     140/  5/  7   N/A
S MID LAKE BUOY  1250   44 38  180/  8/  8   N/A     0
KENOSHA   LAKESH 1300   63     220/  5/ 10   N/A
$$

TC  - TEMPERATURE IN CELSIUS
VSB - VISIBILITY IN STATUTE MILES
WCI - WIND CHILL INDEX
HX  - HEAT INDEX




USA.gov is the U.S. government's official web portal to all federal, state and local government web resources and services.